STARLINK-30844, 58403

Orbit data source: Space-Track

STARLINK-30844, 58403 is a payload satellite owned by SpaceX/Seattle (US) in LEO that was launched on Wed, 22 Nov 2023 UTC via an FALCON 9 launch vehicle from the Air Force Eastern Test Range (AFETR). Payload-class satellites include a variety of spacecraft equipped with specific instruments for various scientific and technological missions. These include communications satellites like Starlink; space stations such as the ISS; scientific satellites like the Hubble; Earth observation satellites from companies like Planet Labs, Umbra, and HawkEye 360; GPS; miniature CubeSats for education and research; and military/defense satellites.

Loading next visibility...
Identifier
58403, 2023-180B
Orbit
LEO
Country
Flag of USUS
Related business
Manufacturer
SpaceX/Seattle
Mission
Operational Commercial Communications
Bus & Motor
STARLINK V2M, Unknown motor
Mass
730 kg wet, ~700 kg dry
Launch date (UTC)
2023-11-22 (3 years ago)
Launch vehicle
FALCON 9
Launch site
Air Force Eastern Test Range (AFETR)
Object type
Payload
Rocket body
Debris
Shape & HBR
Box + 2 Pan, 17.7 m
Radar Cross Section
33.884 m², Large (>1 m²)

Expand to show TLE details & history
Last TLE update: 2 days ago

TLE from 2 days ago
0 STARLINK-30844
1 58403U 23180B   26171.09185106 -.00005805  00000-0 -20147-3 0  9998
2 58403  43.0017 194.5370 0001572 269.8884  90.1788 15.27597281143161
Epoch: 2026-06-20T02:12Z
TLE epoch observation values (Epoch: 2026-06-20T02:12:15.931Z)
Latitude
0.00001°
Longitude
-106.84081°
Altitude
482.776 km
Speed
7.626 km/s
True Right ascension
12h 58m 08s
True Declination
0° 00' 00"
Sunlit
Object was in daylight at epoch
Visualization orbit readout
Latitude
Unknown
Longitude
Unknown
Altitude
Unknown
Speed
Unknown
Apparent Right ascension
Unknown
Apparent Declination
Unknown
Sunlit
N/A
Visualization observer readout
Local Sidereal Time
21:35:26
Azimuth
Unknown
Elevation
Unknown
Doppler factor
Unknown
Orbital elements
Apogee altitude
486.021 km
Perigee altitude
483.863 km
Semi-major axis
6,863.079 km
Eccentricity
0.00016
Inclination
43.0017°
RAAN
194.537°
Arg. of periapsis
269.8884°
True anomaly
90.19681°
Mean anomaly
90.1788°
Eccentric anomaly
90.18781°
Mean motion
3.81737 °/min
Orbital period
94.31 mins
BSTAR
-0.00020147
Loading maneuver chart data...
Computing Atmospheric mass density...
Loading historical data...
Loading historical data...
Loading historical data...
Loading historical data...
Loading historical data...
Loading historical data...
Loading historical data...

Documentation

Showing up to 5 results
|